AFR58TX LFPG-EIDW

Flight info

Callsign AFR58TX
Flight time 1h 27m
Altitude 32000
Route ATREX DCT VESAN DCT RATUK DCT SOVAT L613 SANDY L722 ICTAM T421 DIDZA DCT CESQA DCT BIBPE DCT OKTAD DCT MEDOG DCT KRAGY DCT PEMOB M17 VATRY VATRY4L
Aircraft RJ85/M-SDFGIRWY/LB1

Departure

Time 2026-05-05 17:53
Airport Charles de Gaulle International Airport (LFPG)

Arrival

Time 2026-05-05 19:20
Airport Dublin Airport (EIDW)
Time Latitude Longitude Altitude Speed Heading
2026-05-05 17:21 49.00168 2.58415 354 ft 0 kts 85°
2026-05-05 17:41 49.00168 2.58409 354 ft 3 kts 85°
2026-05-05 17:41 49.00166 2.58369 354 ft 4 kts 89°
2026-05-05 17:41 49.00169 2.58329 354 ft 4 kts 111°
2026-05-05 17:41 49.00185 2.58307 356 ft 2 kts 174°
2026-05-05 17:42 49.00186 2.58306 356 ft 0 kts 175°
2026-05-05 17:46 49.00185 2.58306 356 ft 1 kts 176°
2026-05-05 17:46 49.00182 2.58307 356 ft 1 kts 176°
2026-05-05 17:47 49.00170 2.58308 354 ft 3 kts 175°
2026-05-05 17:47 49.00144 2.58311 354 ft 5 kts 175°
2026-05-05 17:47 49.00101 2.58317 354 ft 7 kts 175°
2026-05-05 17:47 49.00043 2.58322 357 ft 7 kts 191°
2026-05-05 17:48 49.00014 2.58279 356 ft 7 kts 244°
2026-05-05 17:48 49.00004 2.58197 354 ft 9 kts 265°
2026-05-05 17:48 48.99998 2.58083 354 ft 12 kts 266°
2026-05-05 17:48 48.99992 2.57939 358 ft 15 kts 266°
2026-05-05 17:49 48.99981 2.57763 354 ft 18 kts 265°
2026-05-05 17:49 48.99970 2.57559 354 ft 21 kts 265°
2026-05-05 17:49 48.99958 2.57332 359 ft 23 kts 265°
2026-05-05 17:49 48.99945 2.57083 361 ft 22 kts 265°
2026-05-05 17:50 48.99934 2.56879 354 ft 16 kts 265°
2026-05-05 17:50 48.99926 2.56732 360 ft 13 kts 265°
2026-05-05 17:50 48.99894 2.56607 354 ft 13 kts 217°
2026-05-05 17:50 48.99802 2.56602 354 ft 14 kts 175°
2026-05-05 17:51 48.99698 2.56615 354 ft 16 kts 175°
2026-05-05 17:51 48.99645 2.56655 355 ft 4 kts 88°
2026-05-05 17:51 48.99646 2.56675 355 ft 13 kts 84°
2026-05-05 17:51 48.99669 2.57072 351 ft 61 kts 87°
2026-05-05 17:52 48.99711 2.57923 354 ft 98 kts 85°
2026-05-05 17:52 48.99780 2.59119 351 ft 127 kts 85°
2026-05-05 17:52 48.99848 2.60529 485 ft 135 kts 87°
2026-05-05 17:52 48.99913 2.61976 700 ft 143 kts 85°
2026-05-05 17:53 48.99989 2.63509 1045 ft 144 kts 82°
2026-05-05 17:53 49.00081 2.64979 1532 ft 137 kts 81°
2026-05-05 17:53 49.00169 2.66420 1856 ft 137 kts 80°
2026-05-05 17:53 49.00263 2.67884 2211 ft 142 kts 80°
2026-05-05 17:54 49.00380 2.69525 2310 ft 168 kts 82°
2026-05-05 17:54 49.00497 2.71348 2618 ft 179 kts 82°
2026-05-05 17:54 49.00608 2.73321 2885 ft 201 kts 83°
2026-05-05 17:54 49.00733 2.75549 3315 ft 213 kts 83°
2026-05-05 17:55 49.00862 2.77833 3972 ft 218 kts 80°
2026-05-05 17:55 49.01516 2.79826 4677 ft 218 kts 40°
2026-05-05 17:55 49.02912 2.80651 5358 ft 222 kts 360°
2026-05-05 17:55 49.04473 2.80243 5931 ft 235 kts 346°
2026-05-05 17:56 49.06081 2.79531 6420 ft 250 kts 343°
2026-05-05 17:56 49.07776 2.78632 6891 ft 263 kts 341°
2026-05-05 17:56 49.09532 2.77611 7313 ft 275 kts 341°
2026-05-05 17:56 49.11318 2.76527 7775 ft 280 kts 340°
2026-05-05 17:57 49.13154 2.75416 8304 ft 284 kts 340°
2026-05-05 17:57 49.15009 2.74296 8942 ft 287 kts 340°
2026-05-05 17:57 49.16880 2.73178 9599 ft 290 kts 340°
2026-05-05 17:57 49.18743 2.72065 10254 ft 291 kts 340°
2026-05-05 17:58 49.20650 2.70941 10426 ft 299 kts 340°
2026-05-05 17:58 49.22635 2.69780 10430 ft 311 kts 340°
2026-05-05 17:58 49.24708 2.68577 10440 ft 322 kts 340°
2026-05-05 17:58 49.26808 2.67369 10480 ft 330 kts 340°
2026-05-05 17:59 49.28965 2.66115 10778 ft 329 kts 341°
2026-05-05 17:59 49.31098 2.64836 11078 ft 328 kts 341°
2026-05-05 17:59 49.33234 2.63562 11315 ft 330 kts 341°
2026-05-05 17:59 49.35381 2.62297 11542 ft 332 kts 341°
2026-05-05 18:00 49.37517 2.61043 11827 ft 334 kts 341°
2026-05-05 18:00 49.39705 2.59767 12133 ft 336 kts 341°
2026-05-05 18:00 49.41905 2.58486 12440 ft 337 kts 341°
2026-05-05 18:00 49.44082 2.57219 12857 ft 339 kts 341°
2026-05-05 18:01 49.46308 2.55909 13372 ft 343 kts 341°
2026-05-05 18:01 49.48554 2.54587 13831 ft 347 kts 340°
2026-05-05 18:01 49.50818 2.53254 14308 ft 347 kts 341°
2026-05-05 18:01 49.53075 2.51919 14786 ft 349 kts 341°
2026-05-05 18:02 49.55360 2.50569 15189 ft 353 kts 340°
2026-05-05 18:02 49.57669 2.49217 15589 ft 356 kts 341°
2026-05-05 18:02 49.59974 2.47869 15987 ft 360 kts 340°
2026-05-05 18:02 49.62328 2.46457 16381 ft 363 kts 340°
2026-05-05 18:03 49.64695 2.45031 16805 ft 366 kts 340°
2026-05-05 18:03 49.67080 2.43601 17212 ft 369 kts 340°
2026-05-05 18:03 49.69490 2.42168 17576 ft 373 kts 340°
2026-05-05 18:03 49.71923 2.40726 17937 ft 376 kts 340°
2026-05-05 18:04 49.73547 2.39767 18182 ft 378 kts 340°
2026-05-05 18:04 49.76016 2.38314 18539 ft 380 kts 340°
2026-05-05 18:04 49.78498 2.36848 18902 ft 382 kts 339°
2026-05-05 18:04 49.80983 2.35369 19308 ft 382 kts 340°
2026-05-05 18:05 49.83443 2.33923 19735 ft 381 kts 340°
2026-05-05 18:05 49.85936 2.32501 20200 ft 380 kts 340°
2026-05-05 18:05 49.88416 2.31072 20670 ft 378 kts 340°
2026-05-05 18:05 49.90890 2.29630 21088 ft 378 kts 340°
2026-05-05 18:06 49.93352 2.28193 21512 ft 378 kts 340°
2026-05-05 18:06 49.94994 2.27255 21801 ft 377 kts 340°
2026-05-05 18:06 49.98269 2.25375 22321 ft 377 kts 340°
2026-05-05 18:06 50.00701 2.23979 22725 ft 377 kts 340°
2026-05-05 18:07 50.03174 2.22560 23087 ft 378 kts 339°
2026-05-05 18:07 50.05651 2.21109 23418 ft 379 kts 339°
2026-05-05 18:07 50.08111 2.19655 23813 ft 376 kts 339°
2026-05-05 18:07 50.10544 2.18220 24201 ft 374 kts 339°
2026-05-05 18:08 50.12969 2.16815 24517 ft 374 kts 340°
2026-05-05 18:08 50.15431 2.15394 24743 ft 376 kts 340°
2026-05-05 18:08 50.17877 2.13978 25120 ft 373 kts 339°
2026-05-05 18:08 50.20284 2.12570 25445 ft 372 kts 339°
2026-05-05 18:09 50.22720 2.11118 25665 ft 374 kts 339°
2026-05-05 18:09 50.25159 2.09663 25932 ft 375 kts 339°
2026-05-05 18:09 50.27578 2.08246 26281 ft 372 kts 340°
2026-05-05 18:09 50.30017 2.06821 26601 ft 371 kts 340°
2026-05-05 18:10 50.32436 2.05409 26921 ft 371 kts 340°
2026-05-05 18:10 50.34827 2.03991 27164 ft 371 kts 337°
2026-05-05 18:10 50.37131 2.02119 27376 ft 372 kts 327°
2026-05-05 18:10 50.39257 1.99804 27745 ft 369 kts 322°
2026-05-05 18:11 50.41242 1.97302 27990 ft 368 kts 319°
2026-05-05 18:11 50.43183 1.94676 28278 ft 368 kts 317°
2026-05-05 18:11 50.45079 1.92018 28499 ft 367 kts 317°
2026-05-05 18:11 50.46997 1.89323 28690 ft 370 kts 317°
2026-05-05 18:12 50.48910 1.86643 28820 ft 373 kts 318°
2026-05-05 18:12 50.52890 1.81168 28890 ft 385 kts 318°
2026-05-05 18:13 50.56969 1.75543 28953 ft 396 kts 318°
2026-05-05 18:13 50.61158 1.69822 29320 ft 397 kts 318°
2026-05-05 18:13 50.63215 1.67002 29671 ft 395 kts 318°
2026-05-05 18:14 50.65304 1.64130 29827 ft 398 kts 317°
2026-05-05 18:14 50.67392 1.61254 29991 ft 396 kts 317°
2026-05-05 18:14 50.69425 1.58427 30199 ft 389 kts 317°
2026-05-05 18:14 50.71460 1.55606 30386 ft 387 kts 317°
2026-05-05 18:15 50.73458 1.52823 30569 ft 386 kts 317°
2026-05-05 18:15 50.75475 1.50039 30762 ft 385 kts 317°
2026-05-05 18:15 50.77480 1.47245 30965 ft 383 kts 317°
2026-05-05 18:15 50.79491 1.44460 31166 ft 382 kts 317°
2026-05-05 18:16 50.81490 1.41686 31367 ft 381 kts 317°
2026-05-05 18:16 50.83458 1.38938 31579 ft 380 kts 317°
2026-05-05 18:16 50.85443 1.36162 31781 ft 379 kts 317°
2026-05-05 18:16 50.87405 1.33424 31886 ft 381 kts 317°
2026-05-05 18:17 50.89411 1.30627 31923 ft 384 kts 317°
2026-05-05 18:17 50.93467 1.24964 31938 ft 393 kts 317°
2026-05-05 18:18 50.97615 1.19126 31948 ft 401 kts 317°
2026-05-05 18:18 51.01819 1.13233 31949 ft 408 kts 317°
2026-05-05 18:18 51.03735 1.09905 31956 ft 408 kts 303°
2026-05-05 18:19 51.05315 1.06142 31955 ft 409 kts 302°
2026-05-05 18:19 51.08163 0.98331 31953 ft 409 kts 292°
2026-05-05 18:20 51.10195 0.89907 31981 ft 407 kts 286°
2026-05-05 18:20 51.11953 0.81387 32019 ft 405 kts 286°
2026-05-05 18:21 51.13734 0.72817 32065 ft 406 kts 286°
2026-05-05 18:21 51.15574 0.64313 32097 ft 407 kts 287°
2026-05-05 18:22 51.17398 0.55806 32130 ft 406 kts 286°
2026-05-05 18:22 51.19210 0.47306 32127 ft 406 kts 287°
2026-05-05 18:23 51.21022 0.38778 32126 ft 404 kts 287°
2026-05-05 18:23 51.22807 0.30302 32126 ft 403 kts 286°
2026-05-05 18:24 51.24606 0.21791 32089 ft 404 kts 286°
2026-05-05 18:24 51.26385 0.13289 32046 ft 405 kts 287°
2026-05-05 18:25 51.28161 0.04782 32004 ft 404 kts 286°
2026-05-05 18:25 51.29936 -0.03772 31940 ft 404 kts 287°
2026-05-05 18:26 51.31718 -0.12238 31934 ft 403 kts 286°
2026-05-05 18:26 51.33459 -0.20783 31938 ft 403 kts 286°
2026-05-05 18:27 51.35205 -0.29256 31936 ft 402 kts 286°
2026-05-05 18:27 51.36938 -0.37741 31936 ft 401 kts 286°
2026-05-05 18:28 51.39529 -0.50463 31936 ft 401 kts 286°
2026-05-05 18:28 51.41266 -0.59016 31936 ft 402 kts 285°
2026-05-05 18:29 51.42989 -0.67518 31936 ft 402 kts 285°
2026-05-05 18:29 51.44710 -0.76030 31933 ft 402 kts 285°
2026-05-05 18:30 51.46399 -0.84577 31931 ft 401 kts 285°
2026-05-05 18:30 51.48092 -0.93035 31930 ft 401 kts 285°
2026-05-05 18:31 51.49759 -1.01572 31942 ft 401 kts 284°
2026-05-05 18:31 51.51418 -1.10129 31939 ft 399 kts 284°
2026-05-05 18:32 51.53392 -1.18465 31941 ft 402 kts 293°
2026-05-05 18:32 51.56023 -1.26389 31941 ft 404 kts 297°
2026-05-05 18:33 51.58830 -1.34245 31937 ft 404 kts 297°
2026-05-05 18:33 51.61402 -1.42225 31956 ft 400 kts 290°
2026-05-05 18:34 51.63468 -1.50510 31964 ft 399 kts 287°
2026-05-05 18:34 51.65400 -1.58896 31965 ft 398 kts 287°
2026-05-05 18:35 51.67342 -1.67264 31969 ft 398 kts 288°
2026-05-05 18:35 51.69331 -1.75579 31968 ft 398 kts 288°
2026-05-05 18:36 51.71255 -1.83916 31968 ft 398 kts 285°
2026-05-05 18:36 51.72774 -1.92505 31985 ft 396 kts 281°
2026-05-05 18:37 51.74004 -2.01111 31996 ft 394 kts 280°
2026-05-05 18:37 51.75235 -2.09726 31986 ft 393 kts 281°
2026-05-05 18:38 51.76486 -2.18300 31991 ft 393 kts 281°
2026-05-05 18:38 51.77743 -2.26918 31995 ft 394 kts 281°
2026-05-05 18:39 51.78992 -2.35506 31994 ft 394 kts 281°
2026-05-05 18:39 51.80231 -2.44145 31997 ft 394 kts 281°
2026-05-05 18:40 51.81482 -2.52758 31992 ft 393 kts 282°
2026-05-05 18:40 51.82687 -2.61328 31988 ft 393 kts 281°
2026-05-05 18:41 51.83862 -2.69997 31990 ft 394 kts 281°
2026-05-05 18:41 51.85029 -2.78632 31996 ft 393 kts 281°
2026-05-05 18:42 51.86175 -2.87308 32018 ft 393 kts 281°
2026-05-05 18:42 51.87320 -2.95933 32012 ft 394 kts 282°
2026-05-05 18:43 51.88444 -3.04641 32010 ft 396 kts 282°
2026-05-05 18:43 51.89602 -3.13375 32012 ft 395 kts 282°
2026-05-05 18:44 51.90723 -3.22044 32007 ft 395 kts 282°
2026-05-05 18:44 51.91871 -3.30774 32002 ft 396 kts 282°
2026-05-05 18:45 51.92991 -3.39496 31999 ft 395 kts 282°
2026-05-05 18:45 51.94094 -3.48247 31995 ft 397 kts 283°
2026-05-05 18:46 51.95230 -3.57019 32008 ft 398 kts 283°
2026-05-05 18:46 51.96375 -3.65779 32001 ft 399 kts 283°
2026-05-05 18:47 51.97486 -3.74638 32008 ft 399 kts 283°
2026-05-05 18:47 51.98577 -3.83397 32006 ft 397 kts 283°
2026-05-05 18:48 51.99680 -3.92154 32001 ft 396 kts 282°
2026-05-05 18:48 52.00583 -3.99415 32008 ft 392 kts 281°
2026-05-05 18:49 52.01644 -4.08125 32000 ft 391 kts 281°
2026-05-05 18:49 52.02681 -4.16745 32009 ft 388 kts 281°
2026-05-05 18:50 52.03714 -4.25398 32018 ft 390 kts 281°
2026-05-05 18:50 52.04754 -4.34041 32023 ft 393 kts 281°
2026-05-05 18:51 52.05798 -4.42765 32018 ft 392 kts 281°
2026-05-05 18:51 52.06853 -4.51367 32019 ft 388 kts 281°
2026-05-05 18:52 52.07863 -4.60032 32020 ft 390 kts 280°
2026-05-05 18:52 52.08885 -4.68672 32020 ft 391 kts 281°
2026-05-05 18:53 52.09882 -4.77334 32030 ft 390 kts 280°
2026-05-05 18:53 52.10888 -4.85999 32020 ft 389 kts 281°
2026-05-05 18:54 52.11873 -4.94626 32023 ft 390 kts 280°
2026-05-05 18:54 52.12868 -5.03350 32028 ft 391 kts 280°
2026-05-05 18:55 52.14344 -5.11780 31983 ft 392 kts 301°
2026-05-05 18:55 52.16151 -5.15186 31538 ft 400 kts 314°
2026-05-05 18:55 52.18147 -5.18266 31116 ft 401 kts 317°
2026-05-05 18:56 52.20387 -5.20991 30635 ft 402 kts 325°
2026-05-05 18:56 52.22813 -5.23314 30103 ft 405 kts 329°
2026-05-05 18:56 52.25323 -5.25424 29486 ft 406 kts 332°
2026-05-05 18:56 52.27876 -5.27439 28862 ft 406 kts 332°
2026-05-05 18:57 52.30403 -5.29430 28277 ft 407 kts 332°
2026-05-05 18:57 52.32961 -5.31456 27687 ft 407 kts 332°
2026-05-05 18:57 52.35506 -5.33516 27111 ft 408 kts 332°
2026-05-05 18:57 52.38046 -5.35613 26546 ft 409 kts 331°
2026-05-05 18:58 52.40552 -5.37703 26026 ft 409 kts 331°
2026-05-05 18:58 52.43074 -5.39811 25527 ft 401 kts 331°
2026-05-05 18:58 52.45534 -5.41860 25033 ft 393 kts 331°
2026-05-05 18:58 52.47966 -5.43889 24538 ft 391 kts 331°
2026-05-05 18:59 52.50398 -5.45881 24068 ft 388 kts 332°
2026-05-05 18:59 52.52803 -5.47873 23588 ft 385 kts 331°
2026-05-05 18:59 52.55175 -5.49785 23034 ft 382 kts 335°
2026-05-05 18:59 52.57663 -5.51341 22483 ft 380 kts 339°
2026-05-05 19:00 52.60177 -5.52673 21948 ft 377 kts 341°
2026-05-05 19:00 52.62655 -5.53913 21475 ft 373 kts 341°
2026-05-05 19:00 52.65120 -5.55116 21022 ft 371 kts 341°
2026-05-05 19:00 52.67592 -5.56324 20556 ft 367 kts 341°
2026-05-05 19:01 52.70038 -5.57534 20100 ft 365 kts 341°
2026-05-05 19:01 52.72433 -5.58763 19655 ft 362 kts 340°
2026-05-05 19:01 52.74834 -5.60031 19212 ft 360 kts 340°
2026-05-05 19:01 52.77223 -5.61272 18775 ft 357 kts 341°
2026-05-05 19:02 52.79573 -5.62486 18347 ft 355 kts 341°
2026-05-05 19:02 52.81929 -5.63706 17855 ft 353 kts 341°
2026-05-05 19:02 52.84270 -5.64920 17366 ft 350 kts 341°
2026-05-05 19:02 52.86590 -5.66136 16885 ft 347 kts 341°
2026-05-05 19:03 52.88862 -5.67327 16425 ft 344 kts 341°
2026-05-05 19:03 52.91155 -5.68525 15954 ft 341 kts 341°
2026-05-05 19:03 52.93415 -5.69713 15490 ft 339 kts 341°
2026-05-05 19:03 52.95637 -5.70886 15047 ft 337 kts 341°
2026-05-05 19:04 52.97870 -5.72067 14603 ft 335 kts 341°
2026-05-05 19:04 53.00089 -5.73253 14161 ft 331 kts 341°
2026-05-05 19:04 53.02251 -5.74410 13711 ft 323 kts 341°
2026-05-05 19:04 53.04371 -5.75544 13214 ft 317 kts 341°
2026-05-05 19:05 53.06429 -5.76615 12723 ft 311 kts 341°
2026-05-05 19:05 53.08487 -5.77682 12258 ft 306 kts 342°
2026-05-05 19:05 53.10513 -5.78735 11793 ft 302 kts 341°
2026-05-05 19:05 53.12535 -5.79627 11334 ft 299 kts 354°
2026-05-05 19:06 53.14539 -5.79038 10898 ft 299 kts 25°
2026-05-05 19:06 53.16123 -5.76820 10464 ft 300 kts 53°
2026-05-05 19:06 53.17122 -5.73762 10044 ft 299 kts 62°
2026-05-05 19:06 53.18023 -5.70689 9582 ft 294 kts 62°
2026-05-05 19:07 53.18898 -5.67695 9096 ft 279 kts 62°
2026-05-05 19:07 53.19811 -5.64919 8604 ft 265 kts 49°
2026-05-05 19:07 53.21079 -5.62844 8142 ft 254 kts 38°
2026-05-05 19:07 53.22418 -5.60972 7671 ft 248 kts 36°
2026-05-05 19:08 53.23769 -5.59205 7248 ft 244 kts 34°
2026-05-05 19:08 53.25115 -5.57505 7069 ft 241 kts 34°
2026-05-05 19:08 53.26451 -5.55877 7017 ft 238 kts 33°
2026-05-05 19:08 53.27792 -5.54249 7004 ft 237 kts 33°
2026-05-05 19:09 53.29234 -5.52964 7007 ft 234 kts 15°
2026-05-05 19:09 53.30800 -5.52205 7007 ft 235 kts 13°
2026-05-05 19:09 53.32383 -5.51522 7008 ft 234 kts 11°
2026-05-05 19:09 53.33955 -5.50912 7005 ft 234 kts 10°
2026-05-05 19:10 53.35549 -5.50323 7009 ft 234 kts 10°
2026-05-05 19:10 53.37125 -5.49753 7009 ft 234 kts 10°
2026-05-05 19:10 53.38717 -5.49187 7006 ft 233 kts
2026-05-05 19:10 53.40323 -5.48977 7012 ft 231 kts 353°
2026-05-05 19:11 53.41924 -5.49335 7010 ft 231 kts 350°
2026-05-05 19:11 53.43498 -5.49775 7010 ft 231 kts 348°
2026-05-05 19:11 53.45080 -5.50288 7009 ft 231 kts 347°
2026-05-05 19:11 53.46653 -5.50826 7007 ft 231 kts 347°
2026-05-05 19:12 53.48168 -5.51588 6998 ft 229 kts 327°
2026-05-05 19:12 53.49183 -5.53627 6844 ft 237 kts 290°
2026-05-05 19:12 53.49273 -5.56412 6440 ft 246 kts 261°
2026-05-05 19:12 53.48907 -5.59242 5995 ft 249 kts 261°
2026-05-05 19:13 53.48583 -5.62095 5551 ft 252 kts 263°
2026-05-05 19:13 53.48310 -5.65020 5103 ft 254 kts 265°
2026-05-05 19:13 53.47836 -5.67917 4646 ft 260 kts 250°
2026-05-05 19:13 53.47093 -5.70632 4190 ft 253 kts 248°
2026-05-05 19:14 53.46336 -5.73247 3711 ft 250 kts 247°
2026-05-05 19:14 53.45552 -5.75904 3271 ft 257 kts 247°
2026-05-05 19:14 53.44746 -5.78671 3100 ft 266 kts 247°
2026-05-05 19:14 53.43943 -5.81444 3037 ft 263 kts 247°
2026-05-05 19:15 53.43153 -5.84211 3017 ft 263 kts 248°
2026-05-05 19:15 53.42388 -5.86966 3013 ft 262 kts 248°
2026-05-05 19:15 53.41612 -5.89751 3011 ft 263 kts 248°
2026-05-05 19:15 53.40821 -5.92539 3011 ft 263 kts 248°
2026-05-05 19:16 53.40331 -5.95397 3003 ft 256 kts 274°
2026-05-05 19:16 53.40618 -5.98284 3006 ft 245 kts 283°
2026-05-05 19:16 53.40743 -6.01060 2996 ft 232 kts 276°
2026-05-05 19:16 53.40863 -6.03719 2804 ft 228 kts 280°
2026-05-05 19:17 53.41026 -6.06299 2497 ft 221 kts 278°
2026-05-05 19:17 53.41156 -6.08777 2245 ft 209 kts 278°
2026-05-05 19:17 53.41276 -6.11091 1941 ft 187 kts 278°
2026-05-05 19:17 53.41390 -6.13197 1670 ft 179 kts 278°
2026-05-05 19:18 53.41496 -6.15188 1442 ft 169 kts 278°
2026-05-05 19:18 53.41605 -6.17146 1206 ft 167 kts 278°
2026-05-05 19:18 53.41713 -6.18966 976 ft 146 kts 277°
2026-05-05 19:18 53.41803 -6.20683 746 ft 148 kts 275°
2026-05-05 19:19 53.41887 -6.22379 570 ft 146 kts 274°
2026-05-05 19:19 53.41966 -6.24062 374 ft 143 kts 275°
2026-05-05 19:19 53.42053 -6.25672 222 ft 131 kts 275°
2026-05-05 19:19 53.42129 -6.26964 211 ft 86 kts 276°
2026-05-05 19:20 53.42186 -6.27739 210 ft 56 kts 285°
2026-05-05 19:20 53.42303 -6.28113 211 ft 20 kts 326°
2026-05-05 19:20 53.42357 -6.27998 214 ft 15 kts 88°
2026-05-05 19:20 53.42351 -6.27830 213 ft 14 kts 95°
2026-05-05 19:21 53.42343 -6.27673 210 ft 13 kts 95°
2026-05-05 19:21 53.42334 -6.27517 210 ft 14 kts 99°
2026-05-05 19:21 53.42323 -6.27335 210 ft 17 kts 93°
2026-05-05 19:21 53.42313 -6.27114 210 ft 21 kts 100°
2026-05-05 19:22 53.42301 -6.26881 210 ft 19 kts 97°
2026-05-05 19:22 53.42286 -6.26664 211 ft 18 kts 97°
2026-05-05 19:22 53.42279 -6.26465 211 ft 17 kts 90°
2026-05-05 19:22 53.42266 -6.26280 211 ft 16 kts 96°
2026-05-05 19:23 53.42252 -6.26094 211 ft 16 kts 94°
2026-05-05 19:23 53.42243 -6.25910 210 ft 16 kts 95°
2026-05-05 19:23 53.42233 -6.25720 213 ft 16 kts 95°
2026-05-05 19:23 53.42222 -6.25527 210 ft 17 kts 95°
2026-05-05 19:24 53.42212 -6.25333 217 ft 17 kts 94°
2026-05-05 19:24 53.42204 -6.25134 210 ft 17 kts 93°
2026-05-05 19:24 53.42251 -6.24963 211 ft 17 kts 51°
2026-05-05 19:24 53.42343 -6.24856 214 ft 17 kts 349°
2026-05-05 19:25 53.42450 -6.24927 217 ft 17 kts 335°
2026-05-05 19:25 53.42552 -6.24938 216 ft 16 kts 49°
2026-05-05 19:25 53.42605 -6.24794 213 ft 10 kts 77°
2026-05-05 19:25 53.42613 -6.24739 213 ft 0 kts 75°